User: anonymous   Login
Location: Unspecified
(0.0000°N, 0.0000°E)
Time: 20:49:02
(UTC+00:00)
Language:

Courier 1B Rocket - Orbit

View from above orbital plane
View from above orbital plane
View from above satellite
View from above satellite

Ground track
Ground track

The orbit data is extracted from the following two-line orbital elements,

1    59U 60013B   20272.69382829 +.00000072 +00000-0 -16940-4 0  9998
2    59 028.2490 047.8791 0189198 072.6687 289.4461 13.52978324960585
Epoch (UTC): 28 September 2020 16:39:06
Eccentricity: 0.0189198
inclination: 28.2490°
perigee height: 920 km
apogee height: 1202 km
right ascension of ascending node: 47.8791°
argument of perigee: 72.6687°
revolutions per day: 13.52978324
mean anomaly at epoch: 289.4461°
orbit number at epoch: 96058

The dashed part of the orbit path shows where the satellite is in the earth's shadow,  

DLR